Location: ??????
(31.2056°N, 45.3906°E)
Time: 13:53:22
(UTC+00:00)

SPOT 3 Rocket - Pass Details

Date: 09 April 2020
Orbit: 779 x 794 km, 98.8° (Epoch: 04 June)

Event Time Altitude Azimuth Distance (km) Brightness Sun altitude
Exits shadow 17:42:03 47° 225° (SW) 1,044 4.2 -28.6°
Maximum altitude 17:42:57 53° 259° (W) 973 4.1 -28.8°
Drops below altitude 10° 17:48:01 10° 336° (NNW) 2,358 6.7 -29.7°
Sets 17:50:25 0° 341° (NNW) 3,288 7.5 -30.1°
